Capitol Logistics 2391

Operating for ATN



PHNL
Daniel K Inouye International Airport
Honolulu, Hawaii
PKWA
Bucholz AAF Airport
Kwajalein Atoll, Marshall Islands

Activity Log

Date Flight Route Aircraft Duration
No Flights Yet

Route Details

Aircraft Information
Primary: Boeing 757-200SF
Backup: Not Available
Route Data
Distance: 2127nm
Duration: 4h 46m
Recm'd Route: OPIHI2 CHOKO R584 MCFLY R584 MAZZA 1000N/17300E NDJ
Origin Wx: PHNL 020553Z 07015G23KT 10SM FEW024 FEW038 26/17 A3011 RMK AO2 SLP194 T02610167 10317 20261 53013
Dest. Wx: PKWA 020540Z AUTO 09007KT 10SM CLR 29/24 A2983 RMK AO2 T02930238
Notes: USTRANSCOM CONTRACT FLIGHT | 1X PER WEEK | LIMITED FUEL AVBL TO NON-DOD ACFT